Content
SEND FEEDBACK

Daily
Averages
Monthly
Summary
Canada

KENZIEVILLE, NOVA SCOTIA


Home > North America > Canada > Nova Scotia
Elevation: 249 feet     Latitude: 45 58N     Longitude: 062 10W

WEATHER
 
SELECT A DAY
Number of Records: 175,749;   Date Range: 1/1/95 - 8/31/14
 
SHARE

PRINT THIS DATA

[ ← Previous Day ]
WEATHER ALMANAC - JANUARY 23, 2013
[ Next Day → ]
[ °C ]   °F
Weather ElementAverageHighLow
Temperature9.1 °F11.7 °F (3:00 pm)7 °F (11:00 pm)
Dewpoint1 °F4.8 °F (9:00 am)-2.4 °F (5:00 pm)
Humidity66.5 %83 % (10:00 am)42 % (5:00 pm)
Barometer29.79 in29.83 in (3:00 am)29.74 in (2:00 pm)
Wind Speed19.5 mph29.9 mph (8:00 pm)
Wind Gust42.6 mph (7:00 pm)
Weather ElementAverage
Wind DirectionWNW (282.7 °)

Weather ElementTotal
Precipitation---
Heating Degree Days55.7 (Base 65)
Averaged from 30 records on January 23, 2013
WEATHER CONDITIONS BREAKOUT
WIND DIRECTION BREAKOUT
WEATHER BY HOUR - JANUARY 23, 2013
[ °C ]   °F
Local TimeTemperatureDewpointHumidityBarometerVisibilityWind DirectionWind SpeedGust SpeedPrecipitationEventsConditions
1:00 AM8.8 °F1.0 °F71 %29.82 inNW (320°)11.5 mph
2:00 AM8.0 °F-1.0 °F54 %29.82 inNW (310°)13.8 mph
2:00 AM8.2 °F-0.8 °F67 %29.82 inNW (310°)13.8 mph
3:00 AM7.5 °F-1.5 °F67 %29.83 inNW (320°)11.5 mph
4:00 AM7.5 °F-0.8 °F69 %29.83 inNW (310°)12.7 mph
5:00 AM8.0 °F1.0 °F62 %29.82 inWNW (300°)15.0 mph
5:00 AM8.4 °F1.0 °F72 %29.82 inWNW (300°)15.0 mph
6:00 AM9.1 °F3.0 °F76 %29.82 inWNW (290°)11.5 mph
7:00 AM9.3 °F2.8 °F75 %29.81 inWest (260°)9.2 mph
8:00 AM11.0 °F4.0 °F62 %29.82 inWest (270°)15.0 mph
8:00 AM10.8 °F3.9 °F74 %29.82 inWest (270°)15.0 mph
9:00 AM9.7 °F4.8 °F81 %29.82 inWest (280°)17.3 mph
10:00 AM9.1 °F4.8 °F83 %29.83 inWNW (300°)17.3 mph24.2 mph
11:00 AM9.0 °F2.0 °F60 %29.82 inWest (280°)20.7 mph
11:00 AM9.3 °F1.6 °F71 %29.82 inWest (280°)20.7 mph27.6 mph
1:00 PM10.6 °F1.8 °F68 %29.75 inWest (270°)18.4 mph27.6 mph
2:00 PM10.0 °F-1.0 °F48 %29.74 inWest (270°)21.9 mph
2:00 PM10.2 °F-0.6 °F62 %29.74 inWest (270°)21.9 mph32.2 mph
3:00 PM11.7 °F1.6 °F64 %29.74 inWest (280°)21.9 mph32.2 mph
4:00 PM10.4 °F-0.4 °F62 %29.75 inWest (280°)20.7 mph27.6 mph
5:00 PM10.0 °F-2.0 °F42 %29.74 inWest (280°)20.7 mph
5:00 PM9.5 °F-2.4 °F59 %29.74 inWest (280°)20.7 mph31.1 mph
6:00 PM9.1 °F-2.4 °F60 %29.75 inWest (260°)21.9 mph33.4 mph
7:00 PM9.3 °F1.2 °F70 %29.76 inWest (270°)28.8 mph42.6 mph
8:00 PM9.0 °F2.0 °F61 %29.76 inWest (270°)29.9 mph
8:00 PM9.1 °F1.9 °F73 %29.76 inWest (270°)29.9 mph39.1 mph
9:00 PM8.8 °F1.2 °F71 %29.77 inWest (270°)25.3 mph35.7 mph
10:00 PM7.7 °F0.1 °F71 %29.76 inWest (270°)26.5 mph36.8 mph
11:00 PM7.0 °F1.0 °F65 %29.77 inWest (270°)27.6 mph
11:00 PM7.0 °F0.9 °F76 %29.77 inWest (270°)27.6 mph38.0 mph
Hourly data recorded from CWBV, located miles away from Kenzieville, Nova Scotia







STORIES FROM OUR PARTNERS